Radioactive Concentration measured by Seawater Radiation Monitor near Fukushima Daiichi Nuclear Power Station
Date,Time,Cs137(Bq/L),Cs134(Bq/L),Total β(Bq/L)
2016/12/04,00:00,0.63,0.093,ND
2016/12/04,00:10,0.65,0.089,ND
2016/12/04,00:20,0.67,0.086,ND
2016/12/04,00:30,0.68,0.083,ND
2016/12/04,00:40,0.68,0.077,ND
2016/12/04,00:50,0.67,0.085,ND
2016/12/04,01:00,0.67,0.084,ND
2016/12/04,01:10,0.69,0.074,ND
2016/12/04,01:20,0.69,0.071,ND
2016/12/04,01:30,0.69,0.062,ND
2016/12/04,01:40,0.68,0.074,ND
2016/12/04,01:50,0.67,0.076,ND
2016/12/04,02:00,0.68,0.079,ND
2016/12/04,02:10,0.66,0.085,ND
2016/12/04,02:20,0.68,0.091,ND
2016/12/04,02:30,0.69,0.097,ND
2016/12/04,02:40,0.69,0.094,ND
2016/12/04,02:50,0.70,0.10,ND
2016/12/04,03:00,0.71,0.094,ND
2016/12/04,03:10,0.73,0.084,ND
2016/12/04,03:20,0.74,0.086,ND
2016/12/04,03:30,0.72,0.090,8.9
2016/12/04,03:40,0.75,0.076,9.5
2016/12/04,03:50,0.72,0.071,ND
2016/12/04,04:00,0.72,0.076,ND
2016/12/04,04:10,0.69,0.083,ND
2016/12/04,04:20,0.69,0.077,ND
2016/12/04,04:30,0.67,0.078,ND
2016/12/04,04:40,0.67,0.067,ND
2016/12/04,04:50,0.66,0.071,ND
2016/12/04,05:00,0.63,0.082,ND
2016/12/04,05:10,0.64,0.076,ND
2016/12/04,05:20,0.63,0.082,10
2016/12/04,05:30,0.63,0.083,ND
2016/12/04,05:40,0.75,0.056,ND
2016/12/04,05:50,0.76,0.061,ND
2016/12/04,06:00,0.66,0.093,ND
2016/12/04,06:10,0.65,0.087,ND
2016/12/04,06:20,0.67,0.075,ND
2016/12/04,06:30,0.66,0.073,ND
2016/12/04,06:40,0.62,0.083,ND
2016/12/04,06:50,0.64,0.079,9.3
2016/12/04,07:00,0.64,0.080,9.6
2016/12/04,07:10,0.63,0.091,10
2016/12/04,07:20,0.64,0.10,10
2016/12/04,07:30,0.68,0.10,11
2016/12/04,07:40,0.70,0.097,ND
2016/12/04,07:50,0.69,0.10,ND
2016/12/04,08:00,0.66,0.10,ND
2016/12/04,08:10,0.79,0.057,ND
2016/12/04,08:20,0.79,0.060,ND
2016/12/04,08:30,0.77,0.064,ND
2016/12/04,08:40,0.80,0.067,ND
2016/12/04,08:50,0.79,0.063,ND
2016/12/04,09:00,0.84,0.060,ND
2016/12/04,09:10,0.72,0.11,ND
2016/12/04,09:20,0.74,0.10,ND
2016/12/04,09:30,0.75,0.11,ND
2016/12/04,09:40,0.75,0.091,ND
2016/12/04,09:50,0.77,0.092,ND
2016/12/04,10:00,0.79,0.092,ND
2016/12/04,10:10,0.79,0.088,ND
2016/12/04,10:20,0.78,0.097,ND
2016/12/04,10:30,0.79,0.093,ND
2016/12/04,10:40,0.80,0.094,ND
2016/12/04,10:50,0.81,0.10,ND
2016/12/04,11:00,0.79,0.10,ND
2016/12/04,11:10,0.81,0.10,ND
2016/12/04,11:20,0.91,0.066,ND
2016/12/04,11:30,0.80,0.11,ND
2016/12/04,11:40,0.90,0.082,ND
2016/12/04,11:50,0.78,0.12,ND
2016/12/04,12:00,0.88,0.083,ND
2016/12/04,12:10,0.75,0.13,ND
2016/12/04,12:20,0.74,0.13,ND
2016/12/04,12:30,0.74,0.12,8.8
2016/12/04,12:40,0.74,0.12,9.6
2016/12/04,12:50,0.76,0.12,9.0
2016/12/04,13:00,0.75,0.11,ND
2016/12/04,13:10,0.78,0.096,ND
2016/12/04,13:20,0.79,0.090,ND
2016/12/04,13:30,0.79,0.10,ND
2016/12/04,13:40,0.81,0.097,ND
2016/12/04,13:50,0.77,0.12,ND
2016/12/04,14:00,0.76,0.11,ND
2016/12/04,14:10,0.74,0.12,ND
2016/12/04,14:20,0.73,0.12,ND
2016/12/04,14:30,0.73,0.11,ND
2016/12/04,14:40,0.72,0.12,ND
2016/12/04,14:50,0.72,0.11,ND
2016/12/04,15:00,0.74,0.12,ND
2016/12/04,15:10,0.74,0.12,ND
2016/12/04,15:20,0.73,0.13,ND
2016/12/04,15:30,0.76,0.12,ND
2016/12/04,15:40,0.77,0.11,ND
2016/12/04,15:50,0.77,0.11,ND
2016/12/04,16:00,0.74,0.11,ND
2016/12/04,16:10,0.74,0.092,ND
2016/12/04,16:20,0.72,0.093,ND
2016/12/04,16:30,0.67,0.090,ND
2016/12/04,16:40,0.67,0.082,8.8
2016/12/04,16:50,0.65,0.077,ND
2016/12/04,17:00,0.63,0.085,9.5
2016/12/04,17:10,0.63,0.088,11
2016/12/04,17:20,0.61,0.099,10
2016/12/04,17:30,0.60,0.11,11
2016/12/04,17:40,0.59,0.11,ND
2016/12/04,17:50,0.59,0.11,ND
2016/12/04,18:00,0.59,0.10,ND
2016/12/04,18:10,0.58,0.10,ND
2016/12/04,18:20,0.58,0.087,ND
2016/12/04,18:30,0.56,0.087,ND
2016/12/04,18:40,0.57,0.094,ND
2016/12/04,18:50,0.69,0.065,ND
2016/12/04,19:00,0.73,0.063,ND
2016/12/04,19:10,0.72,0.065,8.9
2016/12/04,19:20,0.74,0.068,11
2016/12/04,19:30,0.76,0.061,10
2016/12/04,19:40,0.74,0.059,11
2016/12/04,19:50,0.62,0.086,9.0
2016/12/04,20:00,0.60,0.090,ND
2016/12/04,20:10,0.73,0.069,ND
2016/12/04,20:20,0.62,0.077,ND
2016/12/04,20:30,0.60,0.098,ND
2016/12/04,20:40,0.63,0.094,ND
2016/12/04,20:50,0.63,0.094,ND
2016/12/04,21:00,0.61,0.10,ND
2016/12/04,21:10,0.66,0.086,ND
2016/12/04,21:20,0.66,0.081,ND
2016/12/04,21:30,0.67,0.081,8.8
2016/12/04,21:40,0.66,0.089,11
2016/12/04,21:50,0.66,0.094,12
2016/12/04,22:00,0.68,0.096,11
2016/12/04,22:10,0.66,0.10,9.6
2016/12/04,22:20,0.68,0.10,ND
2016/12/04,22:30,0.66,0.11,ND
2016/12/04,22:40,0.68,0.10,ND
2016/12/04,22:50,0.71,0.11,ND
2016/12/04,23:00,0.71,0.10,ND
2016/12/04,23:10,0.73,0.088,ND
2016/12/04,23:20,0.73,0.086,ND
2016/12/04,23:30,0.76,0.076,ND
2016/12/04,23:40,0.77,0.077,ND
2016/12/04,23:50,0.76,0.081,ND
